[[{"header":{"parameterUnit":"m.s-1","parameterCategory":1,"la1":30.2991,"la2":30.254,"lo1":-89.0895,"lo2":-89.0444,"dy":0.0017,"dx":0.0017,"nx":28,"ny":28,"refTime":"2025-08-08T03:00:00:Z","depth":0,"parameterNumber":2,"parameterNumberName":"U-component_of_WINDS"},"data":[0,0,0,0,0,0,0,0,0,0,0,0,0,0,0,0,0,0,0,0,0,0,0,0,0,0,0,0,0,0,0,0,0,0,0,0,0,0,0,0,0,0,0,0,0,0,0,0,0,0,0,0,0,0,0,0,0,0,-1.3569,-1.3569,0,-1.355,-1.355,-1.355,-1.3498,-1.3497,-1.3496,-1.3495,-1.3476,-1.3477,-1.3477,0,0,0,0,0,0,0,0,0,0,0,0,0,-1.3562,-1.3562,-1.3569,-1.3569,-1.3569,-1.355,-1.355,-1.355,-1.3498,-1.3497,-1.3495,-1.3494,-1.3476,-1.3477,-1.3477,0,0,0,0,0,0,0,0,0,0,0,0,0,-1.3556,-1.3562,-1.3569,-1.3541,-1.3538,-1.355,-1.355,-1.355,-1.3498,-1.3497,-1.3495,-1.3493,-1.3476,-1.3477,-1.3478,-1.3516,0,0,-1.348,-1.348,0,0,0,0,0,0,0,0,-1.3557,-1.3557,-1.3545,-1.3543,-1.354,-1.3525,-1.3541,-1.3539,-1.3499,-1.3513,-1.3495,-1.3493,-1.3494,-1.3493,-1.3493,-1.3516,-1.3515,-1.348,-1.3481,-1.3481,-1.3481,0,0,0,0,0,0,0,-1.3557,-1.3557,-1.3562,-1.3545,-1.3542,-1.3529,-1.3527,-1.354,-1.3513,-1.3512,-1.3508,-1.3507,-1.3492,-1.3493,-1.3492,-1.3515,-1.348,-1.3481,-1.3481,-1.3482,-1.3568,-1.3569,0,0,0,0,0,0,-1.3561,-1.3558,-1.3562,-1.3561,-1.3544,-1.3531,-1.3528,-1.3531,-1.3513,-1.3509,-1.3508,-1.3504,-1.3492,-1.3492,-1.3492,-1.3536,-1.3481,-1.3482,-1.3482,-1.3566,-1.3568,-1.357,0,0,0,0,0,0,-1.3562,-1.3562,-1.3563,-1.3559,-1.3558,-1.3533,-1.3537,-1.3532,-1.3532,-1.351,-1.3505,-1.3514,-1.3491,-1.349,-1.351,-1.3534,-1.3482,-1.3483,-1.3564,-1.3566,-1.3569,-1.3625,0,0,0,0,0,0,-1.3562,-1.3563,-1.3577,-1.3559,-1.3558,-1.3582,-1.3538,-1.3533,-1.3534,-1.3529,-1.3514,-1.351,-1.3489,-1.351,-1.3511,-1.3535,-1.3484,-1.3561,-1.3565,-1.3568,-1.3621,-1.3629,-1.3636,0,0,0,0,0,-1.3561,-1.3594,-1.3578,-1.3579,-1.3575,-1.3584,-1.3583,-1.3559,-1.3536,-1.355,-1.3536,-1.351,-1.3532,-1.3512,-1.3514,-1.3538,-1.356,-1.3564,-1.3568,-1.3617,-1.3627,-1.3636,0,0,0,0,0,0,-1.3616,-1.3591,-1.3573,-1.3601,-1.3595,-1.3575,-1.3592,-1.357,-1.3571,-1.3566,-1.3536,-1.3533,-1.3557,-1.3549,-1.3528,-1.3574,-1.3541,-1.3546,-1.3578,-1.3588,-1.3595,-1.3597,-1.3484,0,0,0,0,0,-1.3631,-1.3639,-1.3617,-1.3644,-1.3642,-1.3618,-1.3621,-1.3602,-1.3595,-1.3592,-1.3579,-1.3573,-1.3579,-1.3583,-1.3586,-1.3619,-1.3615,-1.3636,-1.3644,-1.3651,-1.3655,-1.3671,-1.3681,-1.3583,-1.3583,-1.3583,0,0,-1.3662,-1.365,-1.3657,-1.3655,-1.3648,-1.3657,-1.3616,-1.3628,-1.3635,-1.3594,-1.3612,-1.3602,-1.3594,-1.3621,-1.3632,-1.3615,-1.3681,-1.3656,-1.3661,-1.3662,-1.3676,-1.3686,-1.3694,-1.3586,-1.3585,-1.3585,0,0,-1.3725,-1.3716,-1.3737,-1.3731,-1.3721,-1.3705,-1.371,-1.3693,-1.3685,-1.3703,-1.3672,-1.368,-1.369,-1.3685,-1.3684,-1.3744,-1.372,-1.3746,-1.3786,-1.3803,-1.3811,-1.3817,-1.3839,-1.3847,-1.375,-1.375,-1.375,0,-1.3765,-1.3778,-1.3751,-1.3765,-1.3765,-1.3727,-1.3748,-1.3744,-1.3736,-1.3737,-1.3718,-1.3729,-1.372,-1.3745,-1.376,-1.376,-1.3765,-1.3748,-1.3812,-1.3818,-1.3824,-1.3844,-1.3852,-1.3754,-1.3753,-1.3753,-1.3753,0,-1.3829,-1.3838,-1.3857,-1.3849,-1.3851,-1.3868,-1.3844,-1.3849,-1.383,-1.3816,-1.3834,-1.3823,-1.3824,-1.3828,-1.381,-1.385,-1.384,-1.3817,-1.3783,-1.3837,-1.3855,-1.3863,-1.3758,-1.3757,-1.3756,-1.3755,0,0,-1.3925,-1.3902,-1.3909,-1.3905,-1.3891,-1.3898,-1.3914,-1.3914,-1.3919,-1.3915,-1.3927,-1.3936,-1.3914,-1.3913,-1.3894,-1.3909,-1.3957,-1.3884,-1.3883,-1.3898,-1.4001,-1.4018,-1.4028,-1.3941,-1.3943,-1.3944,-1.4001,0,-1.3984,-1.4009,-1.3985,-1.4015,-1.4024,-1.3988,-1.4002,-1.3995,-1.3982,-1.3988,-1.3973,-1.398,-1.3951,-1.395,-1.3963,-1.3949,-1.3977,-1.3944,-1.3953,-1.3954,-1.3956,-1.4037,-1.4056,-1.4111,-1.4008,-1.401,-1.401,0,-1.4056,-1.4054,-1.4086,-1.4069,-1.4072,-1.4084,-1.4082,-1.4088,-1.4079,-1.4069,-1.4068,-1.4045,-1.4059,-1.4026,-1.4046,-1.4024,-1.4026,-1.402,-1.4021,-1.4021,-1.3985,-1.4039,-1.4128,-1.4136,-1.4021,-1.4021,-1.402,0,-1.4123,-1.4129,-1.4148,-1.4146,-1.4127,-1.4137,-1.413,-1.4119,-1.4121,-1.4119,-1.412,-1.412,-1.412,-1.4121,-1.4099,-1.4077,-1.4122,-1.4087,-1.4114,-1.4114,-1.4125,-1.4124,-1.4215,-1.4126,-1.4126,-1.4126,-1.4126,0,-1.4191,-1.4212,-1.4178,-1.419,-1.4212,-1.4183,-1.4206,-1.4195,-1.4186,-1.4195,-1.4165,-1.4174,-1.4144,-1.415,-1.4133,-1.4152,-1.4152,-1.4145,-1.414,-1.4147,-1.4148,-1.4148,-1.4144,-1.4128,-1.4128,-1.4127,-1.4127,0,-1.427,-1.4248,-1.4267,-1.4247,-1.4243,-1.426,-1.4243,-1.4254,-1.4239,-1.4251,-1.4252,-1.4229,-1.4235,-1.4212,-1.4215,-1.4203,-1.4231,-1.422,-1.4234,-1.423,-1.4258,-1.4256,-1.4352,-1.4363,-1.4268,-1.4268,-1.4269,0,-1.4315,-1.433,-1.4312,-1.4316,-1.431,-1.4317,-1.4318,-1.429,-1.4293,-1.4284,-1.4296,-1.4299,-1.43,-1.4311,-1.4294,-1.4296,-1.4285,-1.4318,-1.4285,-1.4292,-1.4285,-1.4284,-1.4286,-1.4325,-1.4326,-1.4327,-1.4328,0,-1.4398,-1.4386,-1.4389,-1.4387,-1.439,-1.4387,-1.4383,-1.4388,-1.4359,-1.4363,-1.4369,-1.4369,-1.4371,-1.4375,-1.4373,-1.4366,-1.4342,-1.4339,-1.4345,-1.4353,-1.436,-1.4356,-1.4253,-1.4337,-1.4336,-1.4335,-1.4335,-1.4334,-1.4461,-1.4472,-1.4461,-1.4465,-1.4459,-1.4456,-1.4464,-1.445,-1.4454,-1.4453,-1.4437,-1.4445,-1.4436,-1.4431,-1.4426,-1.4432,-1.4417,-1.4426,-1.4428,-1.4431,-1.4435,-1.4359,-1.4432,-1.4431,-1.4431,-1.4431,-1.4431,0,-1.4542,-1.4533,-1.4536,-1.4531,-1.4534,-1.4511,-1.4505,-1.451,-1.4517,-1.451,-1.4512,-1.4518,-1.4521,-1.4505,-1.4506,-1.4514,-1.4503,-1.4515,-1.4515,-1.4513,-1.4449,-1.4444,-1.4524,-1.4524,-1.4524,-1.4524,-1.4524,-1.4524,-1.4584,-1.4602,-1.4589,-1.4603,-1.4594,-1.4602,-1.46,-1.4597,-1.4592,-1.4599,-1.4602,-1.4591,-1.458,-1.458,-1.4582,-1.4577,-1.4579,-1.4595,-1.4586,-1.4527,-1.4518,-1.4509,-1.4504,-1.4595,-1.4595,-1.4649,-1.465,-1.465]},{"header":{"parameterUnit":"m.s-1","parameterCategory":1,"la1":30.2991,"la2":30.254,"lo1":-89.0895,"lo2":-89.0444,"dy":0.0017,"dx":0.0017,"nx":28,"ny":28,"refTime":"2025-08-08T03:00:00:Z","depth":0,"parameterNumber":3,"parameterNumberName":"V-component_of_WINDS"},"data":[0,0,0,0,0,0,0,0,0,0,0,0,0,0,0,0,0,0,0,0,0,0,0,0,0,0,0,0,0,0,0,0,0,0,0,0,0,0,0,0,0,0,0,0,0,0,0,0,0,0,0,0,0,0,0,0,0,0,-0.0322,-0.0323,0,-0.0435,-0.0437,-0.0438,-0.0526,-0.0527,-0.0527,-0.0528,-0.0649,-0.0651,-0.0654,0,0,0,0,0,0,0,0,0,0,0,0,0,-0.0186,-0.0188,-0.0322,-0.0323,-0.0325,-0.0435,-0.0437,-0.0438,-0.0526,-0.0527,-0.0528,-0.0529,-0.0648,-0.0651,-0.0654,0,0,0,0,0,0,0,0,0,0,0,0,0,-0.0267,-0.0188,-0.0322,-0.0382,-0.0388,-0.0435,-0.0437,-0.0439,-0.0525,-0.0527,-0.0528,-0.0529,-0.0647,-0.0651,-0.0654,-0.0652,0,0,-0.0665,-0.0667,0,0,0,0,0,0,0,0,-0.0262,-0.0272,-0.0371,-0.0378,-0.0385,-0.0468,-0.0433,-0.051,-0.0525,-0.0473,-0.0528,-0.053,-0.0588,-0.0596,-0.0615,-0.0658,-0.0663,-0.0666,-0.0668,-0.0669,-0.0671,0,0,0,0,0,0,0,-0.0256,-0.0267,-0.0367,-0.0373,-0.0381,-0.0404,-0.0417,-0.0448,-0.0522,-0.0478,-0.0485,-0.0497,-0.0592,-0.0611,-0.0619,-0.0665,-0.0666,-0.0669,-0.0671,-0.0673,-0.0711,-0.071,0,0,0,0,0,0,-0.0241,-0.0262,-0.0363,-0.037,-0.0325,-0.0406,-0.042,-0.044,-0.0522,-0.0536,-0.0495,-0.05,-0.0604,-0.0614,-0.0623,-0.0626,-0.0669,-0.0673,-0.0675,-0.0713,-0.0711,-0.071,0,0,0,0,0,0,-0.0237,-0.0249,-0.0359,-0.0318,-0.0334,-0.0407,-0.0428,-0.0441,-0.0461,-0.0535,-0.055,-0.0501,-0.0606,-0.0618,-0.0644,-0.0632,-0.0675,-0.0678,-0.0714,-0.0712,-0.0711,-0.0632,0,0,0,0,0,0,-0.0233,-0.0247,-0.0246,-0.0317,-0.0335,-0.0376,-0.0428,-0.0443,-0.0467,-0.0474,-0.0545,-0.0558,-0.0608,-0.0638,-0.0647,-0.0637,-0.0681,-0.0715,-0.0713,-0.0711,-0.0636,-0.0628,-0.062,0,0,0,0,0,-0.0228,-0.022,-0.0245,-0.0257,-0.0335,-0.0375,-0.0386,-0.0442,-0.0465,-0.0465,-0.0513,-0.0556,-0.0631,-0.064,-0.0651,-0.0642,-0.0716,-0.0714,-0.0711,-0.0639,-0.0629,-0.0621,0,0,0,0,0,0,-0.0148,-0.0231,-0.026,-0.0274,-0.0317,-0.039,-0.0392,-0.043,-0.0468,-0.0473,-0.0543,-0.0558,-0.0577,-0.0612,-0.062,-0.0645,-0.0679,-0.0679,-0.0621,-0.0612,-0.0604,-0.0596,-0.0684,0,0,0,0,0,-0.0131,-0.0155,-0.0227,-0.0233,-0.0253,-0.0318,-0.0338,-0.0377,-0.0425,-0.0444,-0.0494,-0.0539,-0.0573,-0.0595,-0.063,-0.0641,-0.0658,-0.0641,-0.0633,-0.0626,-0.0625,-0.0634,-0.0628,-0.0701,-0.0701,-0.0701,0,0,-0.0098,-0.0147,-0.0158,-0.0218,-0.0256,-0.028,-0.0333,-0.0357,-0.0376,-0.0448,-0.0475,-0.0513,-0.0569,-0.0587,-0.0598,-0.0617,-0.0609,-0.0623,-0.0617,-0.062,-0.0631,-0.0624,-0.0618,-0.07,-0.07,-0.07,0,0,-0.0051,-0.0089,-0.0099,-0.0135,-0.0191,-0.0234,-0.0236,-0.0303,-0.0331,-0.0359,-0.0413,-0.0438,-0.0495,-0.0532,-0.0559,-0.0525,-0.0566,-0.0535,-0.0495,-0.0503,-0.0497,-0.0492,-0.0481,-0.0476,-0.0533,-0.0533,-0.0533,0,-0.0004,-0.0041,-0.01,-0.012,-0.0145,-0.0209,-0.022,-0.0253,-0.0318,-0.0334,-0.0355,-0.0428,-0.047,-0.0498,-0.0489,-0.0509,-0.0514,-0.0527,-0.0493,-0.0489,-0.0485,-0.0475,-0.047,-0.0529,-0.053,-0.053,-0.053,0,0.0019,-0.0006,-0.0007,-0.0066,-0.0092,-0.0107,-0.0169,-0.0188,-0.0225,-0.0267,-0.0295,-0.0347,-0.0394,-0.0404,-0.0441,-0.0438,-0.0448,-0.0479,-0.0516,-0.0473,-0.0465,-0.0461,-0.0523,-0.0525,-0.0526,-0.0527,0,0,0.0113,0.0023,0.0024,-0.0004,-0.0069,-0.0091,-0.011,-0.0154,-0.0169,-0.0212,-0.023,-0.0277,-0.0306,-0.0336,-0.0378,-0.0385,-0.0355,-0.0416,-0.0419,-0.0403,-0.0355,-0.0331,-0.0325,-0.0382,-0.0382,-0.0381,-0.0351,0,0.015,0.0115,0.0062,0.0043,0.0019,-0.0042,-0.0059,-0.0102,-0.0141,-0.0169,-0.0213,-0.0245,-0.0281,-0.0299,-0.0309,-0.0356,-0.0346,-0.036,-0.0401,-0.0402,-0.0385,-0.0321,-0.0296,-0.0265,-0.0348,-0.0347,-0.0347,0,0.0187,0.015,0.013,0.0067,0.0054,0.0041,-0.0004,-0.003,-0.008,-0.0108,-0.014,-0.0186,-0.021,-0.0242,-0.0277,-0.0284,-0.0305,-0.0331,-0.0331,-0.0338,-0.0372,-0.0327,-0.0256,-0.0251,-0.0342,-0.0342,-0.0343,0,0.0258,0.0202,0.0183,0.0161,0.0087,0.0079,0.0047,-0.0004,-0.0027,-0.0067,-0.0083,-0.0126,-0.015,-0.0182,-0.0238,-0.0256,-0.0267,-0.0304,-0.0292,-0.0291,-0.0293,-0.0292,-0.0224,-0.0304,-0.0304,-0.0304,-0.0304,0,0.0303,0.0293,0.0214,0.0202,0.0188,0.0127,0.0115,0.0077,0.0033,0.0011,-0.0045,-0.0064,-0.0136,-0.0164,-0.0208,-0.0231,-0.0241,-0.0265,-0.0277,-0.0261,-0.0258,-0.0276,-0.0279,-0.0303,-0.0303,-0.0304,-0.0304,0,0.0379,0.0326,0.03,0.0233,0.0215,0.0208,0.015,0.0135,0.0093,0.0067,0.0057,-0.001,-0.0046,-0.0104,-0.0158,-0.0187,-0.0202,-0.0221,-0.0185,-0.0192,-0.0177,-0.0178,-0.012,-0.0115,-0.0196,-0.0195,-0.0195,0,0.0412,0.0403,0.0335,0.0317,0.0288,0.0261,0.0237,0.0176,0.0154,0.0097,0.0089,0.0049,0.0014,-0.0041,-0.0095,-0.0136,-0.0157,-0.0134,-0.0164,-0.0147,-0.0158,-0.0157,-0.0158,-0.0127,-0.0126,-0.0125,-0.0124,0,0.0475,0.0449,0.0418,0.0378,0.0352,0.0317,0.0279,0.0267,0.0198,0.0175,0.0139,0.0112,0.0058,0.0019,-0.0029,-0.0064,-0.0106,-0.0114,-0.0114,-0.0098,-0.0076,-0.0088,-0.0166,-0.0116,-0.0116,-0.0117,-0.0118,-0.0118,0.0529,0.0518,0.0469,0.0436,0.0402,0.0368,0.0351,0.0308,0.0277,0.023,0.0195,0.0161,0.0111,0.0042,0.001,-0.0019,-0.0038,-0.0037,-0.0037,-0.0036,-0.003,-0.007,-0.0028,-0.0028,-0.0029,-0.0029,-0.0029,0,0.0589,0.0555,0.0525,0.0475,0.0449,0.0414,0.037,0.035,0.0322,0.0279,0.0246,0.0204,0.0166,0.011,0.0067,0.0055,0.0035,0.0046,0.0046,0.0038,-0.0011,-0.0007,0.0063,0.0063,0.0063,0.0063,0.0063,0.0063,0.0617,0.0597,0.0566,0.0527,0.0492,0.046,0.0438,0.0406,0.0372,0.0328,0.0297,0.0261,0.0212,0.0166,0.0129,0.0113,0.01,0.0117,0.0095,0.005,0.0042,0.0034,0.0037,0.0115,0.0115,0.0146,0.0146,0.0146]}]]